STARLINK-35055, 65524

Orbit data source: Space-Track

STARLINK-35055, 65524 is a payload satellite owned by SpaceX/Seattle (US) in SSO that was launched on Sat, 06 Sep 2025 UTC via an FALCON 9 launch vehicle from the Air Force Eastern Test Range (AFETR). Payload-class satellites include a variety of spacecraft equipped with specific instruments for various scientific and technological missions. These include communications satellites like Starlink; space stations such as the ISS; scientific satellites like the Hubble; Earth observation satellites from companies like Planet Labs, Umbra, and HawkEye 360; GPS; miniature CubeSats for education and research; and military/defense satellites.

Loading next visibility...
Identifier
65524, 2025-200E
Orbit
SSO
Country
Flag of USUS
Related business
Manufacturer
SpaceX/Seattle
Mission
Operational Commercial Communications
Bus & Motor
STARLINK V2MO, Unknown motor
Mass
575 kg wet, ~530 kg dry
Launch date (UTC)
2025-09-06 (9 months ago)
Launch vehicle
FALCON 9
Launch site
Air Force Eastern Test Range (AFETR)
Object type
Payload
Rocket body
Debris
Shape & HBR
Box + 2 Pan, 17.7 m
Radar Cross Section
36.964 m², Large (>1 m²)

Expand to show TLE details & history
Last TLE update: 9 hours ago

TLE from 9 hours ago
0 STARLINK-35055
1 65524U 25200E   26171.45204017  .00002217  00000-0  15754-3 0  9998
2 65524  97.3372 239.9971 0001956  99.4833 260.6616 15.05659315 44591
Epoch: 2026-06-20T10:50Z
TLE epoch observation values (Epoch: 2026-06-20T10:50:56.270Z)
Latitude
-0°
Longitude
168.59618°
Altitude
552.776 km
Speed
7.585 km/s
True Right ascension
15h 59m 59s
True Declination
0° 00' 00"
Sunlit
Object was in full shadow at epoch
Visualization orbit readout
Latitude
Unknown
Longitude
Unknown
Altitude
Unknown
Speed
Unknown
Apparent Right ascension
Unknown
Apparent Declination
Unknown
Sunlit
N/A
Visualization observer readout
Local Sidereal Time
07:14:03
Azimuth
Unknown
Elevation
Unknown
Doppler factor
Unknown
Orbital elements
Apogee altitude
547.819 km
Perigee altitude
545.11 km
Semi-major axis
6,924.602 km
Eccentricity
0.0002
Inclination
97.3372°
RAAN
239.9971°
Arg. of periapsis
99.4833°
True anomaly
260.63948°
Mean anomaly
260.6616°
Eccentric anomaly
260.65054°
Mean motion
3.76661 °/min
Orbital period
95.58 mins
BSTAR
0.00015754
Loading maneuver chart data...
Computing Atmospheric mass density...
Loading historical data...
Loading historical data...
Loading historical data...
Loading historical data...
Loading historical data...
Loading historical data...
Loading historical data...

Documentation

Showing up to 5 results
|